STARLINK-2033 (47650 NORAD) Tracking and Keplerian Element Data

This shows tracking and keplerian element data for the satellite.

Feedback or suggestion? Click here.




ElementValue
Catalog47650
NameSTARLINK-2033
Epoch Orbit282
Epoch Day60.16668981
Epoch Year2021
RAAN36.8367
Inclination53.0499
Eccentricity0.0001852
Argument of Perigee98.5706
Mean Anonmoly19.8413
Mean Motion15.86608834
Decay Rate0.00053352
L11 47650U 21012AG 21060.16668981 .00053352 00000-0 20752-3 0 9999
L22 47650 53.0499 36.8367 0001852 98.5706 19.8413 15.86608834 2825

Live tracking and technical data element details for STARLINK-2033 (NORAD 47650). STARLINK-2033 can be tracked NOW for your location showing map with azimuth and elevation plus other details from your city location.

Track the satellite on the map from your city or location and see movement details for azimuth, elevation, latitude, longitude, range, height, and movement on the map or in text.







IsCatalogInMostPopularTable: catalog: 47650, numindb: 4
Update: records affected: 1



GetName: 47650 STARLINK-2033

Hit Count: updated at: Mon, 01 Mar 2021 16:52:32 GMT